This is the latest recevied weather packets stored in our database for station/object IW2HNF-3. If no packets are shown the sender has not sent any weather packets the latest 1 day(s).
| Time | Temp. | Humidity | Pressure | Rain* | Wind** | Luminosity | Snow |
|---|---|---|---|---|---|---|---|
| 1778077859 | 10° C | 99% | 1006.3 hPa | 87.38 mm | - | - | - |
| 1778076660 | 10° C | 98% | 1006.1 hPa | 77.47 mm | - | - | - |
| 1778071859 | 15.56° C | 88% | 1006.5 hPa | 0.25 mm | - | - | - |
| 1778069460 | 16.11° C | 84% | 1006.2 hPa | 0.25 mm | - | - | - |
| 1778069124 | 16.67° C | 82% | 1006.4 hPa | 0 mm | - | - | - |
| 1778066436 | 15.56° C | 86% | 1006.5 hPa | 0 mm | - | - | - |
| 1778065860 | 15° C | 87% | 1006.8 hPa | 0 mm | - | - | - |
| 1778064036 | 15° C | 90% | 1007 hPa | 0 mm | - | - | - |
| 1778063460 | 15° C | 93% | 1006.8 hPa | 0 mm | - | - | - |
| 1778062164 | 13.89° C | 99% | 1007 hPa | 0 mm | - | - | - |
| 1778060436 | 13.33° C | 98% | 1007 hPa | 1.78 mm | - | - | - |
| 1778059860 | 13.33° C | 97% | 1007 hPa | 2.29 mm | - | - | - |
| 1778059238 | 12.78° C | 97% | 1006.9 hPa | 3.3 mm | - | - | - |
| 1778058036 | 12.78° C | 97% | 1005.7 hPa | 6.35 mm | - | - | - |
| 1778057461 | 12.78° C | 97% | 1006 hPa | 5.59 mm | - | - | - |
| 1778056836 | 12.78° C | 97% | 1006.8 hPa | 5.08 mm | - | - | - |
| 1778056259 | 12.78° C | 97% | 1007.1 hPa | 4.83 mm | - | - | - |
| 1778053861 | 12.78° C | 97% | 1006.9 hPa | 0.51 mm | - | - | - |
| 1778053236 | 13.33° C | 97% | 1007 hPa | 0.51 mm | - | - | - |
| 1778052036 | 13.33° C | 97% | 1007 hPa | 0.25 mm | - | - | - |
| 1778051460 | 13.33° C | 97% | 1007.1 hPa | 0.25 mm | - | - | - |
| 1778049060 | 13.33° C | 97% | 1007.2 hPa | 0.25 mm | - | - | - |
| 1778047668 | 12.78° C | 97% | 1007.3 hPa | 0.51 mm | - | - | - |
| 1778044836 | 12.78° C | 97% | 1007.4 hPa | 1.52 mm | - | - | - |
| 1778044260 | 12.78° C | 97% | 1007.6 hPa | 1.52 mm | - | - | - |
* Rain latest hour (hover to see other rain measurements)
** Current wind speed in m/s (hover to see current wind gust speed)